FW2665 Weather Reports


time (UTC)temp
C
wind
direction
speed
KPH
gust
KPH
rain 1hr
cm
rain 24hr
cm
rain mn
cm
humidity
%
barometer
mb
20260504151003 15 345 22.5 40.2 0.00 0.00 0.00 49 1002.9
20260504150504 15 350 25.7 41.8 0.00 0.00 0.00 49 1002.9
20260504141004 14 356 14.5 32.2 0.00 0.00 0.00 51 1002.3
20260504140504 14 355 19.3 32.2 0.00 0.00 0.00 51 1002.3
20260504130503 11 339 8.0 12.9 0.00 0.00 0.00 76 1001.6
20260504110504 9 194 1.6 19.3 0.00 0.00 0.00 72 1000.2
20260504100503 7 207 11.3 14.5 0.00 0.00 0.00 74 999.6
20260504081004 8 211 14.5 20.9 0.00 0.00 0.00 65 1001.0
20260504080504 8 215 14.5 20.9 0.00 0.00 0.00 65 1001.0
20260504050004 8 175 11.3 12.9 0.00 0.00 0.00 66 1003.1
20260504045503 8 175 11.3 19.3 0.00 0.00 0.00 66 1003.3
20260504045004 8 186 11.3 19.3 0.00 0.00 0.00 66 1003.4
20260504044504 8 189 12.9 19.3 0.00 0.00 0.00 65 1003.4
20260504043503 8 189 14.5 16.1 0.00 0.00 0.00 64 1003.6
20260504043004 8 187 11.3 14.5 0.00 0.00 0.00 64 1003.5
20260504042504 8 187 11.3 14.5 0.00 0.00 0.00 62 1003.5
20260504041504 8 192 12.9 14.5 0.00 0.00 0.00 62 1003.7
20260504041004 8 204 9.7 12.9 0.00 0.00 0.00 62 1003.8
20260504040504 8 210 9.7 12.9 0.00 0.00 0.00 60 1003.9
20260504040004 8 215 9.7 12.9 0.00 0.00 0.00 60 1003.9
20260504035503 8 209 9.7 11.3 0.00 0.00 0.00 60 1003.9
20260504035003 8 206 9.7 12.9 0.00 0.00 0.00 60 1004.0
20260504034503 8 208 11.3 12.9 0.00 0.00 0.00 60 1004.1
20260504034004 8 213 11.3 12.9 0.00 0.00 0.00 59 1004.3
20260504033504 8 215 11.3 12.9 0.00 0.00 0.00 59 1004.3
20260504033004 8 216 9.7 12.9 0.00 0.00 0.00 58 1004.4
20260504032004 9 210 11.3 12.9 0.00 0.00 0.00 56 1004.4
20260504031503 10 208 9.7 11.3 0.00 0.00 0.00 53 1004.4
20260504031004 10 220 9.7 11.3 0.00 0.00 0.00 52 1004.5
20260504030504 10 224 11.3 12.9 0.00 0.00 0.00 52 1004.5
20260504030004 10 224 11.3 12.9 0.00 0.00 0.00 51 1004.5
20260504025504 11 216 9.7 12.9 0.00 0.00 0.00 49 1004.6
20260504025004 11 218 9.7 11.3 0.00 0.00 0.00 49 1004.6
20260504024504 11 226 9.7 11.3 0.00 0.00 0.00 48 1004.7
20260504024004 12 226 9.7 11.3 0.00 0.00 0.00 48 1004.7
20260504023504 12 227 9.7 11.3 0.00 0.00 0.00 46 1004.7
20260504023004 12 234 11.3 11.3 0.00 0.00 0.00 46 1004.8
20260504022004 13 244 9.7 11.3 0.00 0.00 0.00 44 1004.9
20260504021504 14 247 9.7 11.3 0.00 0.00 0.00 43 1005.0
20260504021004 14 250 9.7 12.9 0.00 0.00 0.00 42 1005.0
20260504020504 15 252 9.7 12.9 0.00 0.00 0.00 42 1005.0
20260504020004 15 251 11.3 14.5 0.00 0.00 0.00 41 1005.0
20260504015504 15 252 11.3 14.5 0.00 0.00 0.00 41 1005.1
20260504015003 16 252 11.3 16.1 0.00 0.00 0.00 40 1005.1
20260504014504 16 254 11.3 16.1 0.00 0.00 0.00 39 1005.1
20260504014004 16 254 11.3 16.1 0.00 0.00 0.00 39 1005.2
20260504013504 17 256 11.3 20.9 0.00 0.00 0.00 39 1005.1
20260504013004 17 257 12.9 20.9 0.00 0.00 0.00 38 1005.2
20260504012004 18 255 12.9 20.9 0.00 0.00 0.00 37 1005.2
20260504011503 18 254 14.5 20.9 0.00 0.00 0.00 37 1005.2
20260504010504 19 255 14.5 20.9 0.00 0.00 0.00 34 1005.2
20260504005504 19 256 11.3 20.9 0.00 0.00 0.00 33 1005.3
20260504005004 20 256 11.3 22.5 0.00 0.00 0.00 33 1005.3
20260504004505 20 247 17.7 22.5 0.00 0.00 0.00 33 1005.4
20260504004003 20 254 16.1 24.1 0.00 0.00 0.00 32 1005.4
20260504003004 21 257 17.7 22.5 0.00 0.00 0.00 34 1005.5
20260504002504 21 263 16.1 22.5 0.00 0.00 0.00 32 1005.5
20260504002004 21 269 14.5 22.5 0.00 0.00 0.00 31 1005.6
20260504001504 21 271 17.7 22.5 0.00 0.00 0.00 30 1005.6
20260504001004 21 255 16.1 24.1 0.00 0.00 0.00 31 1005.6
20260504000504 21 247 17.7 24.1 0.00 0.00 0.00 32 1005.7
20260504000004 21 265 12.9 20.9 0.00 0.00 0.00 30 1005.6
20260503235504 21 275 16.1 20.9 0.00 0.00 0.00 31 1005.6
20260503235004 21 288 14.5 25.7 0.00 0.00 0.00 33 1005.7
20260503234504 21 279 16.1 25.7 0.00 0.00 0.00 31 1005.8
20260503232504 22 263 22.5 33.8 0.00 0.00 0.00 32 1006.1
20260503232004 22 278 16.1 29.0 0.00 0.00 0.00 31 1006.1
20260503231504 22 271 19.3 29.0 0.00 0.00 0.00 31 1006.1
20260503231006 22 285 16.1 29.0 0.00 0.00 0.00 34 1006.2
20260503230504 22 288 19.3 32.2 0.00 0.00 0.00 34 1006.2
20260503230004 22 275 22.5 32.2 0.00 0.00 0.00 31 1006.3
20260503225003 22 286 17.7 32.2 0.00 0.00 0.00 31 1006.3
20260503224504 22 288 20.9 32.2 0.00 0.00 0.00 31 1006.4
20260503224005 22 291 11.3 22.5 0.00 0.00 0.00 31 1006.4
20260503223504 22 283 14.5 25.7 0.00 0.00 0.00 31 1006.4
20260503223004 22 298 16.1 33.8 0.00 0.00 0.00 33 1006.5
20260503222504 22 254 19.3 33.8 0.00 0.00 0.00 33 1006.6
20260503222006 22 284 22.5 33.8 0.00 0.00 0.00 33 1006.6
20260503221504 22 290 16.1 29.0 0.00 0.00 0.00 34 1006.7
20260503221004 22 301 19.3 25.7 0.00 0.00 0.00 33 1006.7
20260503220004 22 302 19.3 32.2 0.00 0.00 0.00 33 1006.8
20260503215004 22 304 16.1 25.7 0.00 0.00 0.00 33 1006.8
20260503214504 22 264 16.1 27.4 0.00 0.00 0.00 34 1007.0
20260503214004 22 261 16.1 27.4 0.00 0.00 0.00 34 1007.0
20260503213504 22 315 11.3 32.2 0.00 0.00 0.00 33 1007.1
20260503213004 22 307 16.1 32.2 0.00 0.00 0.00 36 1007.3
20260503212504 22 279 14.5 27.4 0.00 0.00 0.00 34 1007.3
20260503212003 22 299 17.7 25.7 0.00 0.00 0.00 35 1007.4
20260503211504 22 269 11.3 20.9 0.00 0.00 0.00 35 1007.5
20260503211004 22 263 14.5 22.5 0.00 0.00 0.00 35 1007.6
20260503210503 22 313 16.1 27.4 0.00 0.00 0.00 34 1007.7
20260503205005 22 284 14.5 32.2 0.00 0.00 0.00 34 1007.9
20260503204004 22 282 16.1 32.2 0.00 0.00 0.00 35 1008.2
20260503203504 22 289 17.7 33.8 0.00 0.00 0.00 34 1008.3
20260503203004 22 301 16.1 33.8 0.00 0.00 0.00 34 1008.4
20260503202503 22 291 22.5 33.8 0.00 0.00 0.00 34 1008.4
20260503202006 22 290 22.5 29.0 0.00 0.00 0.00 35 1008.6
20260503201503 22 311 14.5 25.7 0.00 0.00 0.00 37 1008.6
20260503201004 21 293 11.3 25.7 0.00 0.00 0.00 37 1008.8
20260503200504 22 270 19.3 33.8 0.00 0.00 0.00 34 1008.8
20260503200005 22 283 16.1 33.8 0.00 0.00 0.00 36 1008.8
20260503195504 21 274 16.1 27.4 0.00 0.00 0.00 38 1009.0
20260503195005 21 276 19.3 27.4 0.00 0.00 0.00 36 1009.0
20260503194504 21 267 16.1 29.0 0.00 0.00 0.00 34 1009.0
20260503194004 21 282 22.5 29.0 0.00 0.00 0.00 40 1009.0
20260503193504 21 312 16.1 29.0 0.00 0.00 0.00 37 1009.1
20260503192503 21 256 11.3 32.2 0.00 0.00 0.00 39 1009.2
20260503191504 21 325 14.5 29.0 0.00 0.00 0.00 37 1009.3
20260503191006 21 326 17.7 32.2 0.00 0.00 0.00 40 1009.5
20260503190504 21 323 14.5 32.2 0.00 0.00 0.00 40 1009.5
20260503190005 21 306 11.3 32.2 0.00 0.00 0.00 41 1009.6
20260503185503 21 299 19.3 32.2 0.00 0.00 0.00 43 1009.7
20260503185004 21 311 16.1 35.4 0.00 0.00 0.00 41 1009.8
20260503184504 21 344 19.3 35.4 0.00 0.00 0.00 39 1009.8
20260503184003 20 293 20.9 29.0 0.00 0.00 0.00 41 1009.8
20260503183504 20 343 16.1 38.6 0.00 0.00 0.00 40 1010.0
20260503182504 21 298 27.4 41.8 0.00 0.00 0.00 43 1010.2
20260503181505 20 297 20.9 32.2 0.00 0.00 0.00 44 1010.3
20260503180504 20 348 19.3 32.2 0.00 0.00 0.00 39 1010.4
20260503180004 20 287 16.1 33.8 0.00 0.00 0.00 41 1010.5
20260503175504 20 315 19.3 33.8 0.00 0.00 0.00 41 1010.6
20260503174504 20 281 20.9 33.8 0.00 0.00 0.00 45 1010.8
20260503174003 20 303 22.5 29.0 0.00 0.00 0.00 46 1010.8
20260503173504 20 309 16.1 32.2 0.00 0.00 0.00 44 1010.8
20260503173003 20 315 14.5 32.2 0.00 0.00 0.00 45 1010.9
20260503172504 19 333 20.9 32.2 0.00 0.00 0.00 46 1010.9
20260503172004 19 301 16.1 29.0 0.00 0.00 0.00 46 1011.0
20260503171504 19 327 11.3 33.8 0.00 0.00 0.00 43 1011.1
20260503171004 19 294 17.7 33.8 0.00 0.00 0.00 46 1011.1